DW6471 Weather Reports


Display with metric or nautical units.
time (UTC)temp
F
wind
direction
speed
MPH
gust
MPH
rain 1hr
in
rain 24hr
in
rain mn
in
humidity
%
barometer
mb
20210924003306 63 351 0.0 0.0 0.00 0.00 0.00 89 1017.0
20210924002807 63 351 0.0 0.0 0.00 0.00 0.00 88 1017.0
20210924002307 63 351 0.0 0.0 0.00 0.00 0.00 87 1016.9
20210924001806 64 351 0.0 0.0 0.00 0.00 0.00 87 1016.9
20210924001304 64 351 0.0 0.0 0.00 0.00 0.00 85 1016.8
20210924000804 65 351 0.0 0.0 0.00 0.00 0.00 84 1016.8
20210924000303 65 351 0.0 0.0 0.00 0.00 0.00 82 1016.8
20210923235803 66 351 0.0 0.0 0.00 0.00 0.00 82 1016.8
20210923235305 67 351 0.0 0.0 0.00 0.00 0.00 79 1016.8
20210923234802 68 351 0.0 0.0 0.00 0.00 0.00 78 1016.8
20210923234303 69 351 0.0 0.0 0.00 0.00 0.00 76 1016.7
20210923233803 70 351 0.0 0.0 0.00 0.00 0.00 73 1016.7
20210923233302 70 351 0.0 0.0 0.00 0.00 0.00 72 1016.7
20210923232800 71 351 0.0 1.0 0.00 0.00 0.00 68 1016.7
20210923232300 71 351 0.0 1.0 0.00 0.00 0.00 66 1016.7
20210923231801 72 351 0.0 2.0 0.00 0.00 0.00 64 1016.6
20210923231300 73 351 0.0 2.0 0.00 0.00 0.00 61 1016.7
20210923230800 73 324 0.0 2.0 0.00 0.00 0.00 57 1016.7
20210923230301 74 354 0.0 2.0 0.00 0.00 0.00 59 1016.6
20210923225800 74 349 0.0 2.0 0.00 0.00 0.00 55 1016.5
20210923225301 75 327 0.0 3.0 0.00 0.00 0.00 54 1016.5
20210923224800 75 311 1.0 3.0 0.00 0.00 0.00 55 1016.5
20210923224300 75 42 0.0 3.0 0.00 0.00 0.00 53 1016.5
20210923223759 75 289 1.0 4.0 0.00 0.00 0.00 53 1016.4
20210923223258 75 246 2.0 6.0 0.00 0.00 0.00 53 1016.4
20210923222756 75 268 2.0 9.0 0.00 0.00 0.00 51 1016.3
20210923222257 76 352 1.0 9.0 0.00 0.00 0.00 54 1016.2
20210923221757 76 309 1.0 4.0 0.00 0.00 0.00 52 1016.2
20210923221256 76 323 1.0 5.0 0.00 0.00 0.00 52 1016.2
20210923220755 76 331 1.0 5.0 0.00 0.00 0.00 51 1016.1
20210923220253 77 309 1.0 4.0 0.00 0.00 0.00 53 1016.1
20210923215752 77 264 0.0 4.0 0.00 0.00 0.00 54 1016.1
20210923215252 76 352 1.0 6.0 0.00 0.00 0.00 50 1016.1
20210923214752 76 20 1.0 6.0 0.00 0.00 0.00 51 1016.2
20210923214252 76 350 2.0 6.0 0.00 0.00 0.00 49 1016.1
20210923213750 76 321 2.0 6.0 0.00 0.00 0.00 49 1016.2
20210923213251 76 283 2.0 6.0 0.00 0.00 0.00 49 1016.2
20210923212750 76 338 2.0 6.0 0.00 0.00 0.00 51 1016.2
20210923212250 77 303 2.0 7.0 0.00 0.00 0.00 51 1016.1
20210923211750 76 322 2.0 7.0 0.00 0.00 0.00 51 1016.2
20210923211249 77 0 2.0 6.0 0.00 0.00 0.00 49 1016.1
20210923210748 77 330 1.0 6.0 0.00 0.00 0.00 49 1016.1
20210923210249 77 304 1.0 5.0 0.00 0.00 0.00 51 1016.1
20210923205746 77 290 1.0 5.0 0.00 0.00 0.00 50 1016.1
20210923205246 77 281 2.0 4.0 0.00 0.00 0.00 49 1016.1
20210923204747 77 323 2.0 10.0 0.00 0.00 0.00 47 1016.0
20210923204244 77 330 3.0 10.0 0.00 0.00 0.00 50 1016.1
20210923203745 77 16 2.0 8.0 0.00 0.00 0.00 48 1016.1
20210923203245 77 358 1.0 5.0 0.00 0.00 0.00 51 1016.0
20210923202744 77 281 1.0 5.0 0.00 0.00 0.00 49 1016.0
20210923202244 77 347 2.0 8.0 0.00 0.00 0.00 51 1016.0
20210923201743 77 345 2.0 8.0 0.00 0.00 0.00 50 1016.1
20210923201242 76 330 2.0 8.0 0.00 0.00 0.00 49 1016.1
20210923200742 77 338 2.0 8.0 0.00 0.00 0.00 48 1016.2
20210923200243 76 284 2.0 10.0 0.00 0.00 0.00 50 1016.1
20210923195740 76 297 3.0 10.0 0.00 0.00 0.00 48 1016.2
20210923195241 76 6 3.0 9.0 0.00 0.00 0.00 48 1016.3
20210923194740 76 321 3.0 9.0 0.00 0.00 0.00 51 1016.3
20210923194239 76 288 3.0 7.0 0.00 0.00 0.00 48 1016.4
20210923193738 76 338 3.0 8.0 0.00 0.00 0.00 50 1016.5
20210923193240 76 342 2.0 8.0 0.00 0.00 0.00 47 1016.5
20210923192738 76 29 2.0 8.0 0.00 0.00 0.00 52 1016.6
20210923192239 76 15 2.0 7.0 0.00 0.00 0.00 48 1016.6
20210923191738 76 59 2.0 9.0 0.00 0.00 0.00 51 1016.8
20210923191239 75 349 3.0 9.0 0.00 0.00 0.00 50 1016.8
20210923190737 76 271 3.0 8.0 0.00 0.00 0.00 49 1016.9
20210923190237 76 302 3.0 8.0 0.00 0.00 0.00 48 1017.0
20210923185736 76 335 2.0 8.0 0.00 0.00 0.00 48 1017.0
20210923185236 76 308 2.0 7.0 0.00 0.00 0.00 50 1017.1
20210923184737 75 245 3.0 7.0 0.00 0.00 0.00 49 1017.1
20210923184236 75 276 2.0 7.0 0.00 0.00 0.00 48 1017.2
20210923183736 76 4 2.0 7.0 0.00 0.00 0.00 51 1017.3
20210923183237 75 1 3.0 9.0 0.00 0.00 0.00 50 1017.3
20210923182736 75 349 2.0 9.0 0.00 0.00 0.00 50 1017.4
20210923182236 75 349 2.0 5.0 0.00 0.00 0.00 51 1017.4
20210923181737 75 49 2.0 5.0 0.00 0.00 0.00 51 1017.4
20210923181236 75 4 1.0 5.0 0.00 0.00 0.00 52 1017.6
20210923180736 75 275 2.0 7.0 0.00 0.00 0.00 51 1017.5
20210923180235 75 89 2.0 7.0 0.00 0.00 0.00 52 1017.7
20210923175734 74 258 2.0 6.0 0.00 0.00 0.00 51 1017.7
20210923175234 74 93 2.0 6.0 0.00 0.00 0.00 54 1017.8
20210923174733 74 8 3.0 9.0 0.00 0.00 0.00 51 1017.9
20210923174232 74 321 3.0 9.0 0.00 0.00 0.00 51 1018.0
20210923173729 74 304 3.0 11.0 0.00 0.00 0.00 55 1018.0
20210923173228 73 274 3.0 11.0 0.00 0.00 0.00 52 1018.1
20210923172728 73 70 3.0 8.0 0.00 0.00 0.00 51 1018.1
20210923172227 74 23 3.0 9.0 0.00 0.00 0.00 52 1018.3
20210923171726 73 21 2.0 9.0 0.00 0.00 0.00 55 1018.2
20210923171227 73 303 3.0 8.0 0.00 0.00 0.00 54 1018.3
20210923170726 73 340 3.0 7.0 0.00 0.00 0.00 53 1018.3
20210923170226 73 280 2.0 9.0 0.00 0.00 0.00 53 1018.3
20210923165727 73 11 2.0 9.0 0.00 0.00 0.00 55 1018.3
20210923165227 73 333 2.0 8.0 0.00 0.00 0.00 56 1018.3
20210923164726 73 28 3.0 8.0 0.00 0.00 0.00 54 1018.4
20210923164226 72 21 2.0 6.0 0.00 0.00 0.00 57 1018.5
20210923163724 72 245 2.0 7.0 0.00 0.00 0.00 56 1018.6
20210923163223 71 27 3.0 7.0 0.00 0.00 0.00 57 1018.6
20210923162722 71 90 3.0 7.0 0.00 0.00 0.00 55 1018.7
20210923162222 71 316 3.0 11.0 0.00 0.00 0.00 59 1018.7
20210923161722 71 344 3.0 11.0 0.00 0.00 0.00 58 1018.8
20210923161222 71 13 3.0 8.0 0.00 0.00 0.00 58 1018.8
20210923160722 71 321 4.0 8.0 0.00 0.00 0.00 56 1018.8
20210923160222 71 313 3.0 9.0 0.00 0.00 0.00 57 1018.9
20210923155722 71 351 2.0 9.0 0.00 0.00 0.00 61 1019.0
20210923155222 71 349 2.0 8.0 0.00 0.00 0.00 61 1018.9
20210923154720 70 22 2.0 8.0 0.00 0.00 0.00 61 1018.9
20210923154220 70 310 3.0 8.0 0.00 0.00 0.00 62 1018.8
20210923153721 70 347 3.0 9.0 0.00 0.00 0.00 58 1018.9
20210923153220 70 355 3.0 11.0 0.00 0.00 0.00 64 1018.9
20210923152720 69 324 4.0 11.0 0.00 0.00 0.00 64 1018.9
20210923152221 69 301 4.0 9.0 0.00 0.00 0.00 63 1018.9
20210923151720 69 19 3.0 9.0 0.00 0.00 0.00 63 1019.0
20210923151221 69 37 2.0 7.0 0.00 0.00 0.00 65 1018.9
20210923150720 68 13 2.0 7.0 0.00 0.00 0.00 65 1019.0
20210923150220 68 17 2.0 6.0 0.00 0.00 0.00 69 1018.9
20210923145719 67 3 3.0 9.0 0.00 0.00 0.00 67 1018.9
20210923145218 67 325 3.0 9.0 0.00 0.00 0.00 67 1019.0
20210923144719 67 15 2.0 7.0 0.00 0.00 0.00 70 1019.0
20210923144218 67 342 3.0 7.0 0.00 0.00 0.00 70 1019.0
20210923143718 67 300 2.0 7.0 0.00 0.00 0.00 72 1019.0
20210923143219 66 30 1.0 6.0 0.00 0.00 0.00 72 1018.9
20210923142718 66 20 1.0 5.0 0.00 0.00 0.00 73 1018.9
20210923142218 66 98 1.0 4.0 0.00 0.00 0.00 74 1018.8
20210923141718 65 345 1.0 5.0 0.00 0.00 0.00 76 1018.9
20210923141217 65 16 1.0 5.0 0.00 0.00 0.00 77 1018.8
20210923140717 64 351 2.0 5.0 0.00 0.00 0.00 77 1018.7
20210923140216 64 15 1.0 5.0 0.00 0.00 0.00 79 1018.7
20210923135716 64 348 1.0 5.0 0.00 0.00 0.00 82 1018.7
20210923135217 63 43 1.0 5.0 0.00 0.00 0.00 81 1018.7
20210923134717 62 350 2.0 5.0 0.00 0.00 0.00 83 1018.6
20210923134216 62 33 1.0 5.0 0.00 0.00 0.00 84 1018.6
20210923133717 62 5 1.0 4.0 0.00 0.00 0.00 85 1018.6
20210923133216 61 352 1.0 6.0 0.00 0.00 0.00 86 1018.6
20210923132716 61 20 2.0 6.0 0.00 0.00 0.00 87 1018.5
20210923132449 60 314 2.0 5.0 0.00 0.00 0.00 87 1018.6
20210923132222 60 314 2.0 5.0 0.00 0.00 0.00 87 1018.6
20210923131715 60 1 2.0 5.0 0.00 0.00 0.00 89 1018.5
20210923131214 59 16 1.0 4.0 0.00 0.00 0.00 90 1018.5
20210923130715 58 331 1.0 4.0 0.00 0.00 0.00 92 1018.4
20210923130214 58 345 1.0 4.0 0.00 0.00 0.00 94 1018.4
20210923125714 57 316 1.0 4.0 0.00 0.00 0.00 96 1018.3
20210923125214 57 358 0.0 2.0 0.00 0.00 0.00 96 1018.3
20210923124714 56 331 0.0 1.0 0.00 0.00 0.00 96 1018.2
20210923124213 56 331 0.0 1.0 0.00 0.00 0.00 97 1018.2
20210923123714 55 1 0.0 2.0 0.00 0.00 0.00 97 1018.2
20210923123214 55 1 0.0 2.0 0.00 0.00 0.00 97 1018.2
20210923122711 55 329 0.0 2.0 0.00 0.00 0.00 97 1018.1
20210923122212 55 13 0.0 2.0 0.00 0.00 0.00 97 1018.1
20210923121944 55 306 0.0 0.0 0.00 0.00 0.00 97 1018.0
20210923121717 55 306 0.0 0.0 0.00 0.00 0.00 97 1018.0
20210923121211 54 306 0.0 0.0 0.00 0.00 0.00 96 1017.9
20210923120942 54 306 0.0 0.0 0.00 0.00 0.00 96 1017.9
20210923120714 54 306 0.0 0.0 0.00 0.00 0.00 96 1017.9
20210923120209 54 306 0.0 0.0 0.00 0.00 0.00 96 1017.9
20210923115712 54 306 0.0 1.0 0.00 0.00 0.00 96 1017.8
20210923115442 54 306 0.0 1.0 0.00 0.00 0.00 96 1017.7
20210923115214 54 306 0.0 1.0 0.00 0.00 0.00 96 1017.7
20210923114712 54 264 0.0 0.0 0.00 0.00 0.00 96 1017.8
20210923114436 54 264 0.0 0.0 0.00 0.00 0.00 96 1017.7
20210923114211 54 264 0.0 0.0 0.00 0.00 0.00 96 1017.7
20210923113706 54 264 0.0 0.0 0.00 0.00 0.00 96 1017.6
20210923113205 54 264 0.0 0.0 0.00 0.00 0.00 96 1017.6
20210923112938 54 264 0.0 0.0 0.00 0.00 0.00 96 1017.7
20210923112704 54 264 0.0 0.0 0.00 0.00 0.00 96 1017.7
20210923112204 54 264 0.0 0.0 0.00 0.00 0.00 96 1017.7
20210923111703 54 264 0.0 0.0 0.00 0.00 0.00 96 1017.6
20210923111207 54 264 0.0 1.0 0.00 0.00 0.00 96 1017.6
20210923110707 55 264 0.0 1.0 0.00 0.00 0.00 96 1017.5
20210923110203 55 264 0.0 1.0 0.00 0.00 0.00 96 1017.5
20210923105700 55 264 0.0 1.0 0.00 0.00 0.00 96 1017.5
20210923105200 54 264 0.0 0.0 0.00 0.00 0.00 96 1017.4
20210923104700 55 264 0.0 1.0 0.00 0.00 0.00 96 1017.4
20210923104200 54 10 0.0 1.0 0.00 0.00 0.00 96 1017.4
20210923103700 54 10 0.0 1.0 0.00 0.00 0.00 96 1017.3
20210923103200 54 10 0.0 1.0 0.00 0.00 0.00 96 1017.3
20210923102700 54 10 0.0 0.0 0.00 0.00 0.00 96 1017.4
20210923102200 54 10 0.0 0.0 0.00 0.00 0.00 96 1017.5
20210923101700 54 10 0.0 0.0 0.00 0.00 0.00 96 1017.4
20210923101159 55 10 0.0 0.0 0.00 0.00 0.00 96 1017.5
20210923100658 55 10 0.0 0.0 0.00 0.00 0.00 96 1017.4
20210923100158 55 10 0.0 0.0 0.00 0.00 0.00 96 1017.4
20210923095658 55 10 0.0 0.0 0.00 0.00 0.00 96 1017.3
20210923095158 55 10 0.0 0.0 0.00 0.00 0.00 95 1017.3
20210923094658 55 10 0.0 0.0 0.00 0.00 0.00 95 1017.2
20210923094158 55 9 0.0 0.0 0.00 0.00 0.00 95 1017.1
20210923093658 55 10 0.0 0.0 0.00 0.00 0.00 95 1017.1
20210923093200 55 9 0.0 0.0 0.00 0.00 0.00 95 1017.0
20210923092658 56 10 0.0 0.0 0.00 0.00 0.00 95 1016.9
20210923092159 56 10 0.0 0.0 0.00 0.00 0.00 95 1017.0
20210923091655 56 10 0.0 0.0 0.00 0.00 0.00 95 1017.0
20210923091156 56 10 0.0 0.0 0.00 0.00 0.00 95 1016.9
20210923090656 56 10 0.0 0.0 0.00 0.00 0.00 95 1016.9
20210923090157 56 10 0.0 0.0 0.00 0.00 0.00 94 1016.9
20210923085656 56 10 0.0 0.0 0.00 0.00 0.00 94 1016.9
20210923085156 56 10 0.0 0.0 0.00 0.00 0.00 94 1016.8
20210923084655 57 10 0.0 0.0 0.00 0.00 0.00 94 1016.9
20210923084156 57 10 0.0 0.0 0.00 0.00 0.00 94 1016.9
20210923083656 57 10 0.0 0.0 0.00 0.00 0.00 93 1016.9
20210923083154 57 10 0.0 0.0 0.00 0.00 0.00 93 1016.9
20210923082653 58 10 0.0 0.0 0.00 0.00 0.00 93 1016.9
20210923082155 58 10 0.0 1.0 0.00 0.00 0.00 92 1017.0
20210923081655 58 10 0.0 1.0 0.00 0.00 0.00 92 1017.0
20210923081155 58 15 0.0 1.0 0.00 0.00 0.00 92 1017.1
20210923080654 58 340 0.0 2.0 0.00 0.00 0.00 92 1017.1
20210923080154 58 340 0.0 2.0 0.00 0.00 0.00 92 1017.1
20210923075654 58 337 0.0 1.0 0.00 0.00 0.00 92 1017.1
20210923075154 58 337 0.0 1.0 0.00 0.00 0.00 92 1017.2
20210923074653 59 316 0.0 1.0 0.00 0.00 0.00 92 1017.2
20210923074152 59 321 0.0 1.0 0.00 0.00 0.00 92 1017.2
20210923073652 59 344 0.0 1.0 0.00 0.00 0.00 92 1017.2
20210923073152 59 345 0.0 1.0 0.00 0.00 0.00 92 1017.3
20210923072652 59 345 0.0 2.0 0.00 0.00 0.00 92 1017.2
20210923072152 59 346 0.0 2.0 0.00 0.00 0.00 92 1017.2
20210923071653 59 333 0.0 1.0 0.00 0.00 0.00 91 1017.2
20210923071152 59 45 0.0 1.0 0.00 0.00 0.00 91 1017.2
20210923070652 59 45 0.0 1.0 0.00 0.00 0.00 91 1017.2
20210923070152 60 345 0.0 1.0 0.00 0.00 0.00 91 1017.2
20210923065653 60 330 0.0 1.0 0.00 0.00 0.00 91 1017.2
20210923065150 60 340 0.0 2.0 0.00 0.00 0.00 91 1017.2
20210923064650 60 345 0.0 3.0 0.00 0.00 0.00 91 1017.1
20210923064150 60 341 0.0 3.0 0.00 0.00 0.00 91 1017.2
20210923063650 60 16 0.0 2.0 0.00 0.00 0.00 92 1017.2
20210923063150 60 1 0.0 2.0 0.00 0.00 0.00 92 1017.2
20210923062650 60 314 0.0 1.0 0.00 0.00 0.00 92 1017.3
20210923062150 60 314 0.0 1.0 0.00 0.00 0.00 92 1017.2
20210923061650 60 336 0.0 1.0 0.00 0.00 0.00 92 1017.3
20210923061149 60 336 0.0 1.0 0.00 0.00 0.00 93 1017.3
20210923060650 60 336 0.0 1.0 0.00 0.00 0.00 93 1017.3
20210923060148 59 340 0.0 1.0 0.00 0.00 0.00 93 1017.3
20210923055649 59 340 0.0 1.0 0.00 0.00 0.00 93 1017.4
20210923055147 59 340 0.0 1.0 0.00 0.00 0.00 93 1017.5
20210923054648 59 340 0.0 0.0 0.00 0.00 0.00 93 1017.6
20210923054148 59 340 0.0 0.0 0.00 0.00 0.00 93 1017.7
20210923053647 60 341 0.0 0.0 0.00 0.00 0.00 93 1017.7
20210923053148 60 341 0.0 0.0 0.00 0.00 0.00 93 1017.8
20210923052648 60 340 0.0 1.0 0.00 0.00 0.00 92 1017.8
20210923052147 60 341 0.0 1.0 0.00 0.00 0.00 92 1017.8
20210923051647 60 1 0.0 1.0 0.00 0.00 0.00 92 1017.8
20210923051146 60 1 0.0 1.0 0.00 0.00 0.00 92 1017.8
20210923050645 60 1 0.0 1.0 0.00 0.00 0.00 92 1017.8
20210923050146 60 1 0.0 1.0 0.00 0.00 0.00 92 1017.8
20210923045645 60 4 0.0 1.0 0.00 0.00 0.00 92 1017.8
20210923045141 60 4 0.0 1.0 0.00 0.00 0.00 92 1017.9
20210923044640 60 4 0.0 1.0 0.00 0.00 0.00 91 1017.9
20210923044141 61 4 0.0 1.0 0.00 0.00 0.00 91 1017.9
20210923043639 61 4 0.0 0.0 0.00 0.00 0.00 90 1017.9
20210923043137 61 4 0.0 0.0 0.00 0.00 0.00 90 1017.9
20210923042634 62 4 0.0 0.0 0.00 0.00 0.00 90 1017.9
20210923042133 62 4 0.0 0.0 0.00 0.00 0.00 90 1018.0
20210923041632 62 4 0.0 0.0 0.00 0.00 0.00 89 1017.9
20210923041132 63 4 0.0 1.0 0.00 0.00 0.00 88 1017.9
20210923040630 63 4 0.0 1.0 0.00 0.00 0.00 87 1017.9
20210923040129 63 317 0.0 0.0 0.00 0.00 0.00 86 1017.9
20210923035629 64 319 0.0 2.0 0.00 0.00 0.00 85 1017.9
20210923035128 64 319 1.0 3.0 0.00 0.00 0.00 85 1018.0
20210923034629 64 342 0.0 3.0 0.00 0.00 0.00 83 1017.9
20210923034127 64 311 0.0 3.0 0.00 0.00 0.00 83 1017.9
20210923033626 65 335 1.0 4.0 0.00 0.00 0.00 83 1017.9
20210923033124 65 342 1.0 4.0 0.00 0.00 0.00 82 1017.9
20210923032621 65 319 1.0 5.0 0.00 0.00 0.00 83 1017.8
20210923032122 65 15 1.0 5.0 0.00 0.00 0.00 82 1017.8
20210923031620 65 310 0.0 2.0 0.00 0.00 0.00 82 1017.9
20210923031120 65 14 0.0 4.0 0.00 0.00 0.00 82 1017.9
20210923030621 65 0 1.0 4.0 0.00 0.00 0.00 81 1017.8
20210923030120 65 2 1.0 7.0 0.00 0.00 0.00 80 1017.7
20210923025621 65 332 1.0 7.0 0.00 0.00 0.00 80 1017.8
20210923025119 65 332 1.0 5.0 0.00 0.00 0.00 81 1017.8
20210923024618 66 349 1.0 6.0 0.00 0.00 0.00 81 1017.7
20210923024115 65 359 1.0 6.0 0.00 0.00 0.00 80 1017.7
20210923023615 65 322 1.0 5.0 0.00 0.00 0.00 80 1017.8
20210923023114 66 25 1.0 5.0 0.00 0.00 0.00 80 1017.7
20210923022612 66 337 2.0 8.0 0.00 0.00 0.00 80 1017.6
20210923022112 66 288 2.0 8.0 0.00 0.00 0.00 80 1017.5
20210923021613 65 3 1.0 6.0 0.00 0.00 0.00 82 1017.6
20210923021111 65 356 1.0 6.0 0.00 0.00 0.00 83 1017.4
20210923020611 65 10 1.0 3.0 0.00 0.00 0.00 84 1017.4
20210923020110 64 323 0.0 3.0 0.00 0.00 0.00 85 1017.4
20210923015612 64 1 0.0 3.0 0.00 0.00 0.00 86 1017.3
20210923015113 64 340 0.0 1.0 0.00 0.00 0.00 87 1017.2
20210923014610 64 340 0.0 0.0 0.00 0.00 0.00 88 1017.1
20210923014110 64 340 0.0 0.0 0.00 0.00 0.00 88 1017.1
20210923013608 64 340 0.0 1.0 0.00 0.00 0.00 87 1017.0
20210923013108 65 340 0.0 1.0 0.00 0.00 0.00 86 1017.0
20210923012605 65 340 0.0 1.0 0.00 0.00 0.00 85 1016.9
20210923012102 65 340 0.0 1.0 0.00 0.00 0.00 85 1016.9
20210923011603 65 335 0.0 2.0 0.00 0.00 0.00 84 1017.0
20210923011103 65 8 0.0 2.0 0.00 0.00 0.00 83 1016.9
20210923010602 65 337 0.0 0.0 0.00 0.00 0.00 84 1016.8
20210923010103 65 337 0.0 0.0 0.00 0.00 0.00 84 1016.6
20210923005602 66 337 0.0 1.0 0.00 0.00 0.00 82 1016.6
20210923005102 66 337 0.0 1.0 0.00 0.00 0.00 81 1016.5
20210923004601 66 337 0.0 1.0 0.00 0.00 0.00 81 1016.5
20210923004100 66 337 0.0 1.0 0.00 0.00 0.00 79 1016.4
20210923003600 67 337 0.0 1.0 0.00 0.00 0.00 80 1016.3